Annette Island, AK

12:09 AM AKDT on May 26, 2017 (GMT -0800)
Annette Island

Weather History for PANT - February, 2012

Change the Weather History Date:

Thursday, February 16, 2012

  Actual Average Record
Temperature  
Mean Temperature 38 °F 38 °F  
Max Temperature 40 °F 43 °F 54 °F (1998)
Min Temperature 36 °F 33 °F 9 °F (1948)
Degree Days  
Heating Degree Days 27 27  
Month to date heating degree days 400 435  
Since 1 July heating degree days 4504 4214  
Cooling Degree Days 0    
Month to date cooling degree days 0  
Year to date cooling degree days 0  
Moisture  
Dew Point 37 °F    
Average Humidity 0    
Maximum Humidity 0    
Minimum Humidity 0    
Precipitation  
Precipitation 0.06 in 0.25 in 1.41 in (1997)
Month to date precipitation 2.46 4.37  
Year to date precipitation 16.39 15.10  
Snow  
Snow 0.00 in 0.20 in 6.80 in (1985)
Month to date snowfall 0.0 4.0  
Since 1 July snowfall 23.3  
Snow Depth 0.00 in    
Sea Level Pressure  
Sea Level Pressure 30.09 in    
Wind  
Wind Speed 11 mph (ESE)    
Max Wind Speed 15 mph    
Max Gust Speed 20 mph    
Visibility 7 miles    
Events Rain    
T = Trace of Precipitation, MM = Missing Value Source: NWS Daily Summary

Daily Weather History Graph

Daily Weather History Graph

Search for Another Location

Airport or City:

Trip Planner

Search our weather history database for the weather conditions in past years. The results will help you decide how hot, cold, wet, or windy it might be!

Date:

Astronomy

Feb. 16, 2012 Rise Set
Actual Time 7:07 AM AKST 4:54 PM AKST
Civil Twilight 6:29 AM AKST 5:32 PM AKST
Nautical Twilight 5:47 AM AKST 6:14 PM AKST
Astronomical Twilight 5:05 AM AKST 6:56 PM AKST
Moon 3:46 AM AKST (2/16) 11:16 AM AKST (2/16)
Length of Visible Light 11h 02m
Length of Day
9h 47m
Waning Crescent, 27% of the Moon is Illuminated
Feb 16
Waning Crescent
Feb 21
New
Feb 29
First Quarter
Mar 8
Full
Mar 14
Last Quarter

Hourly Weather History & Observations

Time (AKST) Temp. Windchill Dew Point Humidity Pressure Visibility Wind Dir Wind Speed Gust Speed Precip Events Conditions
12:29 AM 35.6 °F 26.2 °F 33.8 °F 93% 30.01 in 10.0 mi SE 15.0 mph 19.6 mph 0.01 in Rain Light Rain
12:53 AM 36.0 °F 28.0 °F 34.0 °F 93% 30.02 in 10.0 mi SE 11.5 mph - 0.02 in Rain Light Rain
1:53 AM 36.0 °F 27.1 °F 35.1 °F 97% 30.02 in 8.0 mi SE 13.8 mph - 0.02 in   Overcast
2:15 AM 35.6 °F 27.1 °F 35.6 °F 100% 30.02 in 7.0 mi SE 12.7 mph - 0.00 in   Overcast
3:48 AM 35.6 °F 27.5 °F 35.6 °F 100% 30.04 in 3.0 mi SE 11.5 mph - 0.01 in   Overcast
3:53 AM 36.0 °F 28.5 °F 35.1 °F 97% 30.04 in 3.0 mi SE 10.4 mph - 0.01 in   Overcast
4:53 AM 36.0 °F 29.0 °F 35.1 °F 97% 30.05 in 3.0 mi ESE 9.2 mph - N/A   Overcast
5:01 AM 35.6 °F 29.2 °F 35.6 °F 100% 30.04 in 4.0 mi ESE 8.1 mph - N/A   Overcast
5:53 AM 37.0 °F 30.4 °F 35.1 °F 93% 30.06 in 6.0 mi ESE 9.2 mph - N/A   Overcast
6:53 AM 37.0 °F 31.0 °F 35.1 °F 93% 30.09 in 10.0 mi ESE 8.1 mph - N/A   Overcast
7:19 AM 37.4 °F 30.8 °F 35.6 °F 93% 30.08 in 4.0 mi ESE 9.2 mph - N/A   Overcast
7:31 AM 37.4 °F 31.4 °F 35.6 °F 93% 30.09 in 3.0 mi ESE 8.1 mph - N/A   Overcast
7:40 AM 37.4 °F 31.4 °F 35.6 °F 93% 30.09 in 3.0 mi ESE 8.1 mph - N/A   Overcast
7:48 AM 37.4 °F 30.8 °F 35.6 °F 93% 30.09 in 4.0 mi ESE 9.2 mph - N/A   Overcast
7:53 AM 37.0 °F 31.0 °F 36.0 °F 96% 30.10 in 6.0 mi ESE 8.1 mph - N/A   Overcast
8:53 AM 37.9 °F 31.5 °F 36.0 °F 93% 30.11 in 6.0 mi ESE 9.2 mph - N/A   Overcast
9:00 AM 37.4 °F 31.4 °F 37.4 °F 100% 30.10 in 9.0 mi ESE 8.1 mph - N/A   Overcast
9:53 AM 39.0 °F 32.3 °F 37.0 °F 93% 30.12 in 4.0 mi ESE 10.4 mph - N/A   Overcast
10:04 AM 39.2 °F 33.6 °F 37.4 °F 93% 30.12 in 2.0 mi ESE 8.1 mph - 0.00 in Rain Light Rain
10:06 AM 39.2 °F 34.2 °F 37.4 °F 93% 30.12 in 3.0 mi ESE 6.9 mph - 0.01 in Rain Light Rain
10:53 AM 39.9 °F 33.9 °F 37.9 °F 93% 30.13 in 10.0 mi ESE 9.2 mph - 0.01 in   Overcast
11:04 AM 39.2 °F 33.0 °F 37.4 °F 93% 30.12 in 2.5 mi ESE 9.2 mph - 0.00 in Rain Light Rain
11:15 AM 39.2 °F 33.0 °F 37.4 °F 93% 30.13 in 3.0 mi SE 9.2 mph - 0.00 in   Overcast
11:45 AM 39.2 °F 32.0 °F 37.4 °F 93% 30.13 in 2.5 mi ESE 11.5 mph - 0.00 in Rain Light Rain
11:53 AM 39.0 °F 31.8 °F 37.9 °F 96% 30.14 in 4.0 mi SE 11.5 mph - 0.00 in   Overcast
12:53 PM 39.9 °F 33.9 °F 37.9 °F 93% 30.13 in 10.0 mi SE 9.2 mph - 0.01 in   Overcast
1:11 PM 39.2 °F 32.5 °F 37.4 °F 93% 30.13 in 10.0 mi SE 10.4 mph - N/A   Overcast
1:34 PM 39.2 °F 33.0 °F 37.4 °F 93% 30.14 in 2.5 mi SE 9.2 mph - N/A   Overcast
1:43 PM 39.2 °F 34.2 °F 37.4 °F 93% 30.14 in 1.8 mi SE 6.9 mph - 0.00 in Rain Light Rain
1:50 PM 39.2 °F 33.0 °F 37.4 °F 93% 30.14 in 2.0 mi ESE 9.2 mph - 0.00 in Rain Light Rain
1:53 PM 39.9 °F 33.9 °F 37.9 °F 93% 30.14 in 2.5 mi ESE 9.2 mph - 0.00 in Rain Light Rain
1:56 PM 39.2 °F 34.2 °F 37.4 °F 93% 30.13 in 3.0 mi ESE 6.9 mph - 0.00 in Rain Light Rain
2:49 PM 39.2 °F 33.6 °F 37.4 °F 93% 30.11 in 10.0 mi ESE 8.1 mph - 0.00 in   Overcast
2:53 PM 39.9 °F 34.5 °F 37.9 °F 93% 30.12 in 10.0 mi ESE 8.1 mph - 0.00 in   Overcast
2:57 PM 39.2 °F 32.5 °F 37.4 °F 93% 30.12 in 10.0 mi SE 10.4 mph - N/A   Overcast
3:26 PM 39.2 °F 33.6 °F 37.4 °F 93% 30.12 in 10.0 mi ESE 8.1 mph - N/A   Overcast
3:53 PM 39.9 °F 34.5 °F 37.0 °F 89% 30.11 in 10.0 mi ESE 8.1 mph - N/A   Overcast
4:44 PM 39.2 °F 33.6 °F 37.4 °F 93% 30.10 in 10.0 mi ESE 8.1 mph 18.4 mph 0.02 in Rain Light Rain
4:53 PM 39.9 °F 34.5 °F 37.0 °F 89% 30.11 in 10.0 mi ESE 8.1 mph - 0.02 in Rain Light Rain
5:19 PM 39.2 °F 32.0 °F 37.4 °F 93% 30.09 in 10.0 mi SE 11.5 mph - 0.00 in Rain Light Rain
5:39 PM 39.2 °F 32.0 °F 37.4 °F 93% 30.08 in 10.0 mi ESE 11.5 mph - 0.01 in Rain Light Rain
5:53 PM 39.9 °F 32.5 °F 37.0 °F 89% 30.09 in 10.0 mi SE 12.7 mph - 0.01 in   Overcast
6:53 PM 39.9 °F 32.5 °F 37.0 °F 89% 30.07 in 10.0 mi SE 12.7 mph - 0.00 in   Overcast
7:53 PM 39.9 °F 31.8 °F 37.0 °F 89% 30.07 in 10.0 mi SE 15.0 mph 20.7 mph N/A   Overcast
8:53 PM 39.9 °F 32.5 °F 37.0 °F 89% 30.06 in 10.0 mi SE 12.7 mph 20.7 mph N/A   Overcast
9:53 PM 39.9 °F 32.9 °F 36.0 °F 86% 30.06 in 10.0 mi SE 11.5 mph - 0.00 in   Overcast
10:53 PM 39.9 °F 32.5 °F 37.0 °F 89% 30.04 in 10.0 mi SE 12.7 mph - 0.00 in Rain Light Rain
11:53 PM 39.9 °F 32.5 °F 36.0 °F 86% 30.03 in 10.0 mi ESE 12.7 mph 20.7 mph 0.00 in Rain Light Rain